Location: Houghton
(47.1220°N, 88.5690°W)
Time: 09:59:52
(UTC-05:00)

ISS - Visible Passes

Search period start: 21 February 2018 00:00
Search period end: 03 March 2018 00:00
Orbit: 403 x 407 km, 51.6° (Epoch: 22 February)

Date Brightness Start Highest point End Pass type
(mag) Time Alt. Az. Time Alt. Az. Time Alt. Az.
26 Feb -0.9 06:34:35 10° S 06:36:24 14° SE 06:38:14 10° E visible
28 Feb -2.0 06:25:11 10° SSW 06:28:03 28° SE 06:30:56 10° E visible
01 Mar -1.4 05:34:49 15° SSE 05:35:57 17° SE 05:38:11 10° E visible
02 Mar -3.4 06:17:35 18° SW 06:19:47 57° SSE 06:23:01 10° ENE visible
